Location: Montreal
(45.5000°N, 73.5833°W)
Time: 10:16:37
(UTC-04:00)

Envisat - Pass Details

Date: 10 October 2017
Orbit: 764 x 766 km, 98.2° (Epoch: 20 October)

Event Time Altitude Azimuth Distance (km) Brightness Sun altitude
Exits shadow 19:27:28 19° 94° (E) 1,774 4.2 -13.1°
Maximum altitude 19:29:25 24° 63° (ENE) 1,570 4.1 -13.4°
Drops below altitude 10° 19:33:23 10° 11° (NNE) 2,312 5.4 -14.1°
Sets 19:36:05 0° 358° (N) 3,243 6.3 -14.6°
